User: anonymous   Login
Location: Cossonay
(46.5833°N, 6.4167°E)
Time: 03:21:37
(UTC+00:00)
Language:

STARLINK-1350 - Orbit

View from above orbital plane
View from above orbital plane
View from above satellite
View from above satellite

Ground track
Ground track

The orbit data is extracted from the following two-line orbital elements,

1 45535U 20025E   20221.91667824 -.00007771 +00000-0 -51463-3 0  9997
2 45535 052.9994 259.0262 0000949 098.5467 139.1272 15.05590889001757
Epoch (UTC): 08 August 2020 22:00:01
Eccentricity: 0.0000949
inclination: 52.9994°
perigee height: 549 km
apogee height: 550 km
right ascension of ascending node: 259.0262°
argument of perigee: 98.5467°
revolutions per day: 15.05590889
mean anomaly at epoch: 139.1272°
orbit number at epoch: 175

The dashed part of the orbit path shows where the satellite is in the earth's shadow,  

DLR